Regional Weather Roundup
Issued by NWS Green Bay, WI

Home | Current Version | Previous Version | Text Only | Print | Product List | Glossary On
Versions: 1 2 3 4 5 6 7 8 9 10 11 12 13 14 15 16 17 18 19 20 21 22 23 24 25 26 27 28 29 30 31 32 33 34 35 36 37 38 39 40 41 42 43 44 45 46 47 48 49 50
000
ASUS43 KGRB 250311
RWRGRB

NORTH-CENTRAL AND NORTHEAST WISCONSIN REGIONAL WEATHER ROUNDUP
NATIONAL WEATHER SERVICE GREEN BAY WI
900 PM CST FRI FEB 24 2017

WIZ005-009-010>012-018-019-250400-
NORTH CENTRAL WISCONSIN

CITY           SKY/WX    TMP DP  RH WIND       PRES   REMARKS
IRONWOOD       LGT SNOW  18  14  86 N8G16     29.78S FOG     WCI   7
MANITOWISH WTR LGT SNOW  16  14  93 N12G17    29.70S WCI   2
ARBOR VITAE    LGT SNOW  19  15  85 N14G20      N/A  WCI   6
EAGLE RIVER    LGT SNOW  17  12  82 N14       29.65F WCI   3
LAND O LAKES   LGT SNOW  17  15  88 N10       29.67F WCI   5
RHINELANDER    LGT SNOW  18  14  84 N12G18    29.67R VSB 1   WCI   5
PHILLIPS       LGT SNOW  16  13  90 N8        29.73R WCI   5
ANTIGO         LGT SNOW  17  14  88 N15G21    29.63R WCI   2
TOMAHAWK       LGT SNOW  17  14  88 NW8       29.70R WCI   7
MERRILL        NOT AVBL
$$

WIZ013-073-250400-
NORTHEAST WISCONSIN

CITY           SKY/WX    TMP DP  RH WIND       PRES   REMARKS
IRON MOUNTAIN  MIX PCPN  20  14  77 N18G26    29.61F WCI   5
MARINETTE      MIX PCPN  24  22  91 N14G22    29.59F FOG
OCONTO         CLOUDY    23  21  91 N12       29.59F
$$

WIZ017-030-035>037-045-250400-
CENTRAL WISCONSIN

CITY           SKY/WX    TMP DP  RH WIND       PRES   REMARKS
MEDFORD        LGT SNOW  17  13  84 N16       29.69S WCI   1
WAUSAU         LGT SNOW  19  15  84 N12G20    29.66R FOG     WCI   7
MOSINEE        LGT SNOW  19  18  93 N15G21    29.67S WCI   5
MARSHFIELD     LGT SNOW  19  15  84 N13       29.68R VSB 1   WCI   6
WISC RAPIDS    LGT SNOW  21  17  84 N20G25    29.68S FOG     WCI   6
STEVENS POINT  MIX PCPN  18  15  88 N9        29.66F WCI   7
WAUPACA        CLOUDY    24  21  87 NW10G17   29.64S FOG
SHAWANO        MIX PCPN  24  21  88 CALM      29.64S
CLINTONVILLE   LGT SNOW  23  21  93 N9        29.64S
WAUTOMA        LGT SNOW  23  21  93 NW9       29.65S FOG
$$

WIZ038-039-048-051-250400-
FOX VALLEY

CITY           SKY/WX    TMP DP  RH WIND       PRES   REMARKS
NWS GREEN BAY  LGT SNOW  25  24  96 NW13      29.60R FOG
APPLETON       CLOUDY    25  23  93 N13       29.59R FOG
OSHKOSH        LGT SNOW  25  23  92 N17       29.60S FOG
FOND DU LAC    LGT SNOW  26  22  84 N14       29.60S FOG
$$

WIZ022-050-052-250400-
EAST CENTRAL WISCONSIN

CITY           SKY/WX    TMP DP  RH WIND       PRES   REMARKS
EPHRAIM        CLOUDY    26  26 100 N13G18    29.53S FOG
WASHINGTON ISL CLOUDY    26  24  91 N13       29.54S FOG
STURGEON BAY   MIX PCPN  27  25  92 MISG      29.56S FOG
MANITOWOC      MIX PCPN  26  24  92 NW18G24   29.56R FOG
SHEBOYGAN      FRZ RAIN  26  23  88 N17G25    29.55R FOG
$$

LMZ563-521-522-541>543-250400-
LAKESHORE

STATION/POSITION TIME  TEMP    WIND        PRES    VSBY  WAVE
                       AIR SEA DIR/SP/G                  HT/PER
                 (UTC) (F)     (DEG/KT/KT) (MB)    (MI)  (FT/S)
SHEBOYGAN LKSHOR 0300   27     330/  7/  9 1001.3R
KEWAUNEE LKSHORE 0248   27     350/ 12/ 20 1000.1F
NORTHPORT PIER   0240   27      10/  4/  5 1001.4F
SISTER BAY LKSHO 0235   27        CALM       N/A
MENOMINEE LKSHOR 0248   24     320/ 19/ 24 1001.1S
$$




USA.gov is the U.S. government's official web portal to all federal, state and local government web resources and services.